Wind_Speed
27 28 30 30 30 31 32 32 32 32 33 33 33 33 33 32 33 33 33 33 33 33 33 33 33 34 34 35 36 36 36 37 38 38 38 38 39 39 40 41 42 44 45
28 28 29 30 31 31 32 33 33 33 33 33 33 33 33 33 33 33 33 33 33 33 33 33 33 34 34 35 36 37 37 38 38 38 37 37 37 39 40 42 43 43 44
28 28 29 29 30 31 32 33 34 34 34 34 34 34 33 33 34 34 34 33 33 33 33 33 34 35 35 36 37 37 37 38 38 39 39 39 39 39 40 41 42 43 44
28 28 29 29 30 31 32 33 33 33 34 34 34 34 33 33 33 33 33 33 33 34 34 34 35 36 37 37 37 37 38 38 39 39 40 40 40 39 39 41 42 42 43
27 28 29 30 31 32 32 33 33 33 34 34 34 34 34 34 34 34 35 35 36 36 36 37 38 39 39 38 38 39 39 39 40 40 40 41 40 40 39 39 40 41 42
27 28 29 29 30 31 32 33 34 34 34 35 35 35 36 36 36 36 36 37 38 38 38 39 39 40 40 40 40 40 41 41 41 41 41 41 41 41 41 41 40 41 41
27 27 28 29 30 31 32 32 33 33 34 35 36 36 36 37 38 38 39 40 40 40 41 41 42 42 41 41 41 41 42 42 42 42 42 42 42 42 42 42 41 41 42
26 28 28 29 29 30 31 32 32 33 35 36 36 37 38 39 39 40 41 41 41 42 42 43 43 43 44 44 43 43 43 43 43 43 43 43 43 43 43 43 43 43 43
26 27 28 29 29 30 30 31 33 34 36 36 37 38 39 40 41 41 42 42 43 43 43 44 44 45 45 45 45 45 45 44 44 44 44 44 44 44 44 44 44 44 44
24 25 26 28 29 30 31 32 34 34 35 37 38 39 40 41 42 43 43 44 44 45 46 46 46 46 46 45 46 46 45 45 44 44 44 44 44 45 45 46 46 46 46
23 25 26 27 29 31 32 34 35 36 37 38 38 39 40 41 42 43 44 44 45 45 45 46 46 46 46 46 46 45 45 45 45 44 44 45 45 46 46 47 47 47 47
23 25 27 28 29 30 31 33 34 35 36 37 38 39 40 41 42 43 44 44 44 45 45 45 46 46 47 46 46 45 45 45 44 45 45 45 46 46 47 47 47 47 46
25 27 28 29 30 31 32 33 34 36 37 38 39 40 41 42 43 43 43 44 44 44 45 46 46 46 46 45 45 45 45 45 45 45 45 46 46 46 46 46 46 45 46
27 29 30 31 32 33 34 35 36 38 39 40 41 42 42 43 43 43 44 44 44 45 45 45 45 44 44 45 45 44 44 44 45 45 45 46 46 45 45 45 45 45 45
30 31 32 33 34 35 36 37 38 39 40 40 41 42 43 43 44 44 44 44 44 44 44 43 43 43 43 43 43 43 43 43 44 44 45 45 44 44 44 44 44 44 44
33 33 35 36 37 38 38 39 40 40 41 41 42 42 43 44 44 44 44 44 44 44 44 43 43 43 43 43 43 43 43 43 43 43 43 44 43 43 43 43 43 44 44
35 36 37 38 38 40 41 41 42 43 43 43 43 43 44 44 44 44 44 44 44 43 43 42 42 42 42 43 43 43 43 43 43 43 43 43 42 42 43 43 43 44 44
38 39 40 40 41 42 42 42 43 43 43 44 44 44 44 45 45 45 44 44 44 43 43 43 43 43 43 43 43 44 43 43 43 42 42 42 42 42 42 43 43 44 44
39 40 41 42 43 43 44 44 45 45 45 45 45 46 46 46 45 45 45 45 44 44 44 43 43 43 43 43 43 44 43 43 42 42 41 42 42 43 43 43 43 44 45
41 42 43 44 44 45 46 46 46 46 46 46 46 46 46 46 45 45 45 45 44 44 44 43 44 44 44 44 43 43 43 43 42 42 42 42 43 43 43 43 44 44 44
43 43 44 45 46 46 47 47 47 47 47 47 47 47 47 46 46 45 45 45 44 44 44 43 43 43 43 43 43 43 43 42 42 42 42 42 43 43 44 44 44 44 44
44 45 46 46 47 48 48 48 48 48 48 48 47 47 47 46 45 44 44 44 44 43 43 42 42 42 42 43 43 43 42 42 42 42 43 43 44 44 44 44 44 44 44
47 47 47 48 48 48 49 49 48 48 48 47 47 47 46 45 45 44 44 43 43 42 42 42 42 42 42 42 42 42 41 41 41 42 43 43 43 43 44 44 44 44 44
48 49 49 49 49 49 49 49 49 48 48 47 46 46 45 44 43 43 43 43 42 41 41 41 41 41 41 41 40 40 40 41 41 42 42 43 43 43 44 43 43 43 43
50 50 50 50 50 49 49 49 48 48 47 46 45 45 44 43 43 42 42 42 42 41 41 41 41 40 40 40 40 40 41 41 41 41 41 42 42 42 43 43 43 42 42
51 51 51 50 49 49 48 47 47 47 46 45 44 44 43 43 42 42 41 41 41 41 41 41 40 40 40 40 40 41 41 41 40 40 40 40 41 41 41 41 41 42 42
Wind_Direction
253 255 257 261 263 265 267 268 271 273 275 277 279 281 282 283 284 285 285 286 287 288 288 289 288 288 288 288 288 287 287 287 286 284 283 282 281 279 277 276 275 273 272
257 259 261 263 265 265 266 268 270 273 275 277 279 281 282 282 284 285 285 286 287 288 289 289 289 290 290 291 290 289 289 288 286 285 283 283 283 282 280 278 277 276 275
258 260 263 265 265 267 268 269 271 273 276 277 278 280 281 283 284 285 286 286 288 289 291 291 291 291 292 292 292 291 290 289 288 286 284 283 282 282 282 281 280 278 277
262 263 265 266 268 269 270 271 273 274 276 277 278 279 281 282 283 284 285 286 288 289 290 291 291 292 292 292 292 291 291 290 289 288 287 286 285 283 281 281 281 280 279
263 266 268 269 270 270 271 272 273 275 276 277 278 279 280 281 282 283 285 286 288 289 290 291 292 292 293 293 293 292 291 291 291 289 288 287 285 284 283 281 281 281 281
263 268 271 272 272 272 273 274 275 276 276 276 277 279 281 282 283 284 285 287 288 290 291 292 293 293 293 294 293 293 292 292 291 290 289 287 286 285 284 283 281 281 280
266 269 272 274 274 274 275 276 277 277 277 278 279 280 281 282 283 285 286 287 288 289 290 291 292 293 294 294 293 292 292 292 291 290 289 287 286 285 285 284 282 281 280
269 270 273 275 275 275 275 276 277 277 279 279 280 281 281 282 283 284 285 286 288 289 289 290 291 293 293 293 292 292 292 292 291 290 288 287 286 286 285 284 283 281 280
272 273 275 276 277 278 278 278 279 279 279 280 280 281 282 283 284 285 286 286 287 288 289 289 291 292 292 292 292 292 292 291 290 289 288 287 287 286 286 286 285 283 281
276 278 280 279 280 282 282 282 281 281 281 281 282 282 283 284 284 285 286 287 288 288 288 289 290 291 291 291 291 291 290 290 288 288 287 287 287 287 286 286 285 284 283
279 278 280 281 283 285 285 285 284 284 284 284 284 285 285 286 286 286 287 288 288 288 289 289 290 290 290 291 291 290 289 289 288 287 287 288 288 288 287 286 286 285 284
283 283 283 286 287 287 287 287 287 286 286 286 286 287 287 287 288 288 288 289 289 289 290 290 290 290 291 291 290 289 288 288 288 287 287 288 288 288 288 287 287 286 285
286 285 285 287 289 290 290 290 289 289 288 288 288 289 289 289 289 290 290 290 290 290 291 290 290 290 290 290 289 289 288 287 287 287 287 288 288 288 289 289 288 287 287
289 288 287 288 290 291 292 292 292 292 291 291 291 290 290 290 290 291 291 291 291 291 292 291 291 290 290 289 289 288 288 287 287 287 288 289 289 289 289 289 289 289 288
290 290 290 291 292 293 293 294 293 293 293 293 292 292 291 291 292 292 291 291 291 291 291 291 291 290 291 291 290 289 289 288 289 289 289 289 290 290 290 290 289 290 290
291 291 291 291 292 293 293 293 293 294 294 294 293 293 293 292 292 292 292 291 291 291 291 291 291 291 291 290 290 290 290 290 290 290 289 290 289 290 290 291 291 291 291
291 291 291 291 292 293 293 293 293 293 293 293 293 293 293 293 293 292 292 291 290 290 290 290 291 291 292 292 291 291 290 290 290 290 290 290 289 290 291 291 292 292 292
293 293 293 293 293 294 294 294 294 293 293 293 293 293 293 293 292 292 291 291 291 290 290 290 291 291 292 292 292 292 291 291 290 290 290 290 290 290 291 291 292 293 294
294 294 294 294 294 295 294 294 294 293 293 293 293 292 293 293 292 292 291 290 290 290 291 290 291 291 291 292 292 292 292 291 290 290 290 290 291 291 291 292 293 294 294
295 295 295 295 295 294 294 294 294 294 293 293 293 292 292 292 292 291 291 290 290 290 290 290 290 290 290 290 291 292 291 290 290 290 290 290 291 292 292 293 293 294 295
296 296 295 295 295 295 295 295 294 294 294 293 293 292 292 292 291 291 291 290 290 290 290 289 289 289 289 290 290 291 290 289 289 289 290 291 292 292 293 293 293 294 295
296 296 296 296 296 296 296 295 295 294 293 292 292 292 292 291 291 291 291 290 290 290 290 290 290 290 290 290 291 291 290 290 290 290 291 291 292 292 293 294 294 294 294
297 297 296 296 296 296 296 295 295 294 294 293 292 292 292 291 291 290 290 290 290 290 290 290 289 290 290 290 291 290 290 291 291 291 291 291 292 293 294 295 295 294 295
296 296 296 296 296 296 295 295 295 294 294 293 292 292 291 291 291 291 290 290 290 289 290 290 290 290 290 291 291 291 291 291 292 292 291 292 292 293 294 294 295 295 295
296 296 296 296 296 296 295 295 295 294 294 293 292 291 291 291 291 291 291 290 290 290 290 291 291 290 290 290 291 291 291 291 292 291 292 293 293 294 295 295 295 296 296
296 296 296 296 296 295 295 295 295 295 295 294 292 291 291 291 291 291 290 290 290 290 291 291 290 291 291 291 291 291 291 291 292 292 293 294 295 296 296 296 296 296 296
Height
5775 5777 5778 5778 5779 5780 5780 5780 5781 5781 5780 5780 5779 5778 5777 5776 5775 5773 5771 5769 5768 5766 5764 5762 5760 5758 5757 5755 5754 5752 5750 5749 5747 5745 5744 5742 5740 5739 5739 5738 5737 5737 5736
5770 5771 5772 5773 5773 5773 5773 5773 5774 5774 5773 5773 5772 5771 5770 5769 5767 5766 5764 5762 5760 5758 5756 5755 5753 5751 5749 5747 5745 5743 5741 5739 5737 5736 5734 5733 5732 5730 5728 5727 5726 5726 5725
5765 5766 5766 5766 5766 5766 5766 5767 5767 5766 5766 5765 5765 5764 5763 5761 5760 5759 5757 5755 5753 5751 5749 5747 5745 5743 5741 5739 5737 5735 5732 5730 5728 5726 5725 5723 5722 5721 5719 5717 5716 5715 5714
5759 5760 5760 5760 5760 5759 5759 5760 5759 5759 5758 5758 5757 5756 5755 5754 5753 5751 5750 5748 5746 5744 5741 5739 5737 5735 5733 5731 5728 5726 5723 5721 5719 5716 5714 5713 5711 5710 5710 5707 5705 5704 5702
5753 5754 5753 5753 5753 5753 5752 5752 5752 5752 5751 5750 5749 5748 5747 5746 5745 5743 5742 5740 5738 5736 5733 5731 5729 5726 5724 5722 5719 5716 5714 5711 5709 5707 5704 5702 5700 5699 5698 5697 5695 5693 5691
5747 5747 5747 5746 5746 5746 5745 5745 5745 5744 5743 5743 5742 5741 5740 5738 5737 5735 5734 5732 5730 5727 5725 5722 5720 5717 5715 5712 5710 5707 5704 5701 5699 5696 5694 5692 5690 5688 5686 5686 5684 5682 5680
5741 5741 5741 5740 5740 5739 5738 5738 5737 5737 5736 5735 5734 5733 5731 5730 5729 5727 5725 5723 5721 5718 5716 5713 5710 5708 5705 5702 5699 5697 5694 5691 5688 5686 5683 5681 5679 5677 5675 5674 5672 5671 5669
5735 5735 5734 5734 5733 5732 5731 5731 5730 5729 5728 5727 5725 5724 5723 5721 5719 5717 5715 5713 5711 5708 5706 5703 5700 5697 5694 5691 5689 5686 5683 5680 5677 5674 5672 5670 5667 5665 5663 5661 5660 5658 5657
5729 5729 5728 5727 5726 5725 5724 5723 5722 5721 5720 5718 5717 5715 5713 5712 5710 5708 5705 5703 5701 5698 5695 5692 5690 5687 5683 5680 5677 5674 5671 5668 5666 5663 5660 5658 5656 5653 5650 5648 5646 5645 5643
5723 5722 5721 5720 5719 5718 5717 5716 5714 5713 5711 5709 5708 5706 5704 5702 5700 5697 5695 5692 5690 5687 5684 5681 5678 5675 5672 5669 5666 5663 5660 5657 5654 5651 5649 5646 5643 5641 5638 5635 5633 5631 5629
5717 5716 5715 5714 5712 5711 5709 5708 5706 5704 5702 5700 5698 5696 5694 5691 5689 5687 5684 5681 5678 5676 5673 5670 5667 5663 5660 5657 5654 5651 5648 5645 5642 5639 5636 5634 5631 5628 5625 5622 5619 5617 5615
5711 5710 5709 5707 5705 5703 5702 5700 5697 5695 5693 5691 5689 5686 5684 5681 5678 5676 5673 5670 5667 5664 5661 5658 5655 5651 5648 5645 5641 5638 5635 5633 5630 5627 5624 5621 5618 5615 5612 5609 5606 5603 5600
5705 5704 5702 5700 5698 5696 5694 5691 5689 5686 5684 5682 5679 5676 5673 5671 5668 5665 5662 5659 5656 5652 5649 5646 5643 5639 5636 5632 5629 5626 5623 5620 5617 5615 5612 5609 5605 5602 5599 5596 5593 5590 5587
5699 5697 5695 5693 5690 5688 5686 5683 5680 5677 5675 5672 5669 5666 5663 5660 5657 5654 5650 5647 5644 5641 5637 5634 5630 5627 5624 5620 5617 5614 5611 5608 5605 5602 5599 5596 5593 5589 5586 5583 5580 5577 5574
5692 5689 5687 5685 5682 5680 5677 5674 5671 5668 5665 5662 5659 5655 5652 5648 5645 5642 5639 5636 5632 5629 5625 5622 5618 5615 5612 5608 5605 5602 5599 5596 5593 5589 5586 5583 5580 5577 5574 5571 5567 5564 5561
5684 5681 5679 5676 5673 5670 5668 5664 5661 5658 5655 5651 5648 5644 5641 5637 5634 5630 5627 5624 5620 5617 5613 5610 5607 5603 5600 5596 5593 5590 5587 5584 5581 5577 5574 5571 5568 5565 5561 5558 5555 5552 5548
5675 5672 5669 5666 5663 5660 5657 5654 5651 5647 5644 5640 5637 5633 5629 5626 5622 5619 5615 5612 5608 5604 5601 5598 5595 5591 5588 5585 5581 5578 5575 5572 5569 5565 5562 5559 5556 5552 5549 5546 5542 5539 5535
5665 5662 5659 5656 5653 5650 5646 5643 5639 5636 5632 5629 5625 5621 5617 5614 5610 5606 5603 5599 5596 5593 5589 5586 5583 5579 5576 5573 5569 5566 5563 5560 5557 5553 5550 5547 5544 5540 5537 5534 5530 5526 5522
5655 5652 5648 5645 5642 5639 5635 5631 5628 5624 5620 5616 5612 5608 5605 5601 5597 5594 5590 5587 5584 5580 5577 5574 5570 5567 5564 5561 5557 5554 5551 5548 5545 5541 5538 5535 5532 5528 5525 5522 5518 5514 5510
5644 5641 5638 5634 5631 5627 5623 5619 5615 5611 5607 5603 5599 5595 5592 5588 5585 5581 5578 5574 5571 5568 5565 5561 5558 5555 5552 5548 5545 5542 5539 5536 5533 5530 5526 5523 5520 5516 5513 5509 5506 5502 5498
5633 5629 5626 5622 5618 5614 5610 5606 5602 5598 5594 5590 5587 5583 5579 5575 5572 5568 5565 5561 5558 5555 5552 5549 5546 5543 5539 5536 5533 5529 5526 5523 5521 5517 5514 5511 5508 5504 5500 5497 5493 5489 5485
5621 5617 5613 5609 5605 5600 5597 5593 5589 5585 5581 5577 5573 5569 5566 5562 5558 5555 5552 5549 5545 5542 5540 5536 5534 5530 5527 5524 5520 5517 5514 5511 5508 5505 5502 5499 5495 5492 5488 5484 5480 5476 5473
5608 5604 5600 5596 5592 5587 5583 5579 5575 5571 5567 5564 5560 5556 5553 5549 5546 5543 5539 5536 5533 5530 5527 5524 5521 5518 5515 5512 5508 5505 5502 5499 5496 5493 5490 5486 5483 5479 5475 5471 5467 5464 5460
5595 5591 5587 5583 5578 5574 5569 5565 5561 5557 5554 5550 5547 5543 5540 5537 5533 5530 5527 5524 5521 5518 5515 5512 5509 5506 5503 5500 5496 5493 5490 5487 5484 5481 5477 5474 5470 5467 5463 5459 5455 5451 5447
5582 5577 5573 5569 5565 5560 5556 5551 5547 5543 5540 5537 5533 5530 5527 5524 5521 5518 5514 5511 5508 5505 5503 5500 5497 5494 5491 5488 5485 5482 5479 5475 5472 5469 5465 5462 5458 5454 5451 5447 5443 5439 5435
5568 5564 5559 5555 5551 5547 5542 5538 5534 5530 5526 5523 5520 5517 5514 5511 5508 5505 5503 5499 5496 5493 5490 5487 5485 5482 5479 5476 5473 5470 5467 5463 5460 5457 5454 5450 5446 5443 5439 5435 5431 5427 5423